JILIN-01 GAOFEN 3D 32 (52449 NORAD) Tracking and Keplerian Element Data

This shows tracking and keplerian element data for the satellite.

Feedback or suggestion? Click here.




ElementValue
Catalog52449
NameJILIN-01 GAOFEN 3D 32
Epoch Orbit222
Epoch Day139.76075273
Epoch Year2022
RAAN204.3803
Inclination97.6809
Eccentricity0.0013159
Argument of Perigee224.7489
Mean Anonmoly280.8319
Mean Motion15.0996193
Decay Rate3.742E-05
L11 52449U 22048G 22139.76075273 .00003742 00000+0 23422-3 0 9995
L22 52449 97.6809 204.3803 0013159 224.7489 280.8319 15.09961930 2220

Live tracking and technical data element details for JILIN-01 GAOFEN 3D 32 (NORAD 52449). JILIN-01 GAOFEN 3D 32 can be tracked NOW for your location showing map with azimuth and elevation plus other details from your city location.

Track the satellite on the map from your city or location and see movement details for azimuth, elevation, latitude, longitude, range, height, and movement on the map or in text.







IsCatalogInMostPopularTable: catalog: 52449, numindb: -1

Insert: records affected: 1


GetName: 52449 JILIN-01 GAOFEN 3D 32

Hit Count: inserted at: Mon, 23 May 2022 17:00:57 GMT